Temperature
18 18 18 18 18 18 18 18 18 18 18 18 18 18 18 18 18 18 18 18 18 18 18 18 18 18 18 18 18 18 18 18 19 19 18 18 18 18 18 18 18 18 18
18 18 18 18 18 18 18 18 18 18 18 18 18 18 18 18 18 18 18 18 18 18 18 18 18 18 18 18 18 18 18 18 18 18 18 18 18 18 18 18 18 18 18
18 18 18 18 18 18 18 18 18 18 18 18 18 17 17 17 17 17 17 17 17 17 17 17 17 17 17 18 18 18 18 18 18 18 18 18 18 18 18 18 18 18 18
18 18 18 18 18 18 18 18 18 18 17 17 17 17 17 17 17 17 17 17 17 17 17 17 17 17 17 17 17 18 18 18 18 18 18 17 18 18 18 18 18 18 18
18 18 18 18 18 18 18 18 18 17 17 17 17 17 17 17 17 17 17 17 17 17 17 17 17 17 17 17 17 17 18 18 18 17 17 17 18 18 18 18 18 18 18
18 18 18 18 18 18 18 17 17 17 17 17 17 17 17 17 17 17 17 17 17 17 17 17 17 17 17 17 17 17 17 18 18 17 17 17 17 18 18 18 18 18 18
18 18 18 18 18 18 18 17 17 17 17 17 17 17 17 17 17 17 16 16 16 16 16 16 16 17 17 17 17 17 17 17 17 17 17 17 17 18 18 18 18 18 18
18 18 18 18 18 18 18 17 17 17 17 17 17 17 17 17 17 17 17 17 16 16 16 16 16 16 17 17 17 17 17 17 17 17 17 17 17 17 18 18 18 18 18
18 18 18 18 18 18 17 17 17 17 17 17 17 17 17 17 16 17 17 16 16 16 16 16 16 17 17 17 17 17 17 17 17 17 17 17 17 17 18 18 18 18 18
18 18 18 18 17 17 17 17 17 17 17 17 17 17 17 16 16 16 16 16 16 16 16 16 17 17 17 17 17 17 17 17 17 17 17 17 17 17 17 18 18 18 18
19 18 18 18 17 17 18 17 17 17 17 17 17 17 17 16 16 16 16 16 16 16 16 16 17 17 17 17 17 17 17 17 17 17 17 17 17 17 17 17 17 17 17
19 19 18 18 18 18 18 17 17 17 17 17 17 17 17 17 17 17 16 16 16 16 16 16 16 17 17 17 17 17 17 17 17 17 17 17 17 17 17 17 17 17 17
19 19 18 18 18 18 18 18 17 17 17 17 17 17 17 17 17 17 17 16 16 16 16 16 16 17 17 17 17 17 17 17 17 17 17 17 17 17 17 17 17 17 17
19 19 18 18 18 18 18 18 17 17 17 17 17 17 17 17 17 17 17 17 16 16 16 16 16 17 17 17 17 17 17 17 17 17 17 17 17 17 17 17 17 17 17
19 19 19 19 18 18 18 18 18 17 17 17 17 17 17 17 17 17 17 17 16 16 17 16 16 16 16 16 17 17 17 17 17 17 17 17 17 17 17 17 17 17 17
19 19 19 19 19 18 18 18 18 17 17 17 17 17 17 17 17 17 17 16 16 16 16 16 16 16 16 16 16 16 16 16 17 17 16 16 16 16 16 17 17 17 17
19 19 19 19 18 18 18 18 18 17 17 17 17 17 17 17 17 16 16 16 16 16 16 16 16 16 16 16 16 16 16 16 16 16 16 16 16 16 16 16 16 16 16
19 19 18 18 18 18 18 18 18 17 17 17 17 17 17 17 17 16 16 16 16 16 16 16 16 16 16 16 16 16 16 16 16 16 16 16 16 16 16 16 16 16 16
19 19 18 18 18 18 18 18 17 17 17 17 17 16 16 16 16 16 16 16 16 16 16 16 16 16 16 16 16 16 16 16 16 16 16 16 16 16 16 16 16 16 16
19 19 18 18 18 18 18 17 17 17 17 16 16 16 16 16 16 16 16 16 16 16 16 15 15 16 16 16 16 16 16 16 16 16 16 16 16 16 16 16 16 16 16
19 19 18 18 18 18 17 17 17 17 17 16 16 16 16 16 16 16 16 16 15 15 15 15 15 15 16 16 16 16 16 16 16 16 16 16 16 16 16 16 16 16 16
19 19 18 18 18 18 17 17 17 17 17 16 16 16 16 16 16 16 16 15 15 15 15 15 15 15 15 16 16 16 16 16 16 16 16 16 16 16 16 16 16 16 16
19 19 18 18 18 18 17 17 17 17 17 16 16 16 16 16 16 15 16 15 15 15 15 15 15 15 15 15 15 16 16 16 16 16 16 16 16 16 16 16 16 16 16
19 19 19 18 18 18 17 17 17 17 17 16 16 16 16 16 16 16 16 15 15 15 15 15 15 15 15 15 15 15 15 16 16 16 16 16 16 16 16 16 15 15 15
19 19 18 18 18 18 17 17 17 17 17 16 16 16 16 16 16 16 16 15 15 15 15 15 15 15 15 15 15 15 15 15 16 15 15 15 16 16 15 15 15 15 15
18 18 18 18 18 18 17 17 17 17 17 16 16 16 16 16 16 16 16 15 15 15 15 15 15 15 15 15 15 15 15 15 15 15 15 15 15 15 15 15 15 15 15
Wind_Speed
10 12 13 13 13 13 14 14 14 14 13 13 13 13 12 11 11 10 10 10 10 10 9 9 9 9 9 8 8 8 7 7 6 6 5 5 6 6 6 7 8 7 7
14 14 14 14 14 14 14 14 14 13 13 13 12 12 11 10 10 10 9 9 9 9 9 8 8 8 8 8 7 7 6 5 5 3 2 3 4 5 6 7 8 6 7
15 15 14 15 15 14 14 14 13 13 13 13 12 12 11 10 10 9 9 8 8 8 8 8 8 7 7 7 6 6 6 5 5 4 4 0 4 5 6 6 7 6 6
15 14 15 15 15 15 15 14 14 13 13 13 12 12 11 10 9 9 8 8 8 8 7 7 7 7 6 6 6 6 5 5 6 7 3 3 6 7 6 6 6 6 5
15 16 16 16 16 15 15 14 14 13 13 12 12 11 10 9 8 8 8 7 7 7 7 6 6 6 6 6 5 5 5 6 7 6 4 7 9 8 7 6 5 4 4
15 17 16 16 16 15 14 14 14 13 13 12 11 10 9 8 7 7 7 6 6 6 6 6 5 5 5 5 4 4 5 6 7 3 4 8 9 8 6 5 5 4 4
15 16 16 16 15 15 14 14 13 12 12 11 10 9 8 7 7 6 6 6 6 6 6 5 5 4 4 4 4 4 5 7 6 2 5 8 9 7 5 5 4 4 3
14 14 16 16 15 14 13 13 12 11 10 9 8 7 7 6 6 5 5 5 5 5 5 4 4 3 3 3 3 3 5 7 5 3 5 7 8 7 5 4 4 3 3
13 13 14 14 14 13 13 12 12 10 9 8 6 5 4 4 4 5 5 4 4 4 4 3 3 2 1 1 2 4 5 7 6 4 4 8 8 7 5 5 3 3 3
10 10 11 13 13 13 12 12 11 9 8 6 5 4 3 3 4 4 5 4 3 2 2 1 1 2 2 3 4 5 6 7 3 2 5 8 8 7 5 4 4 3 4
9 8 9 9 10 11 12 11 10 10 8 6 6 6 5 4 6 6 6 5 3 2 2 2 4 5 5 7 8 8 6 5 2 2 7 8 8 7 6 4 4 4 4
8 7 8 7 6 7 8 9 7 7 7 5 3 4 2 2 3 5 7 5 5 4 5 6 7 8 8 7 8 8 5 4 2 5 7 8 8 7 6 5 4 4 4
8 7 6 6 5 6 5 5 4 4 3 3 3 5 3 4 2 4 5 6 6 5 4 4 7 7 5 2 2 4 2 1 4 7 8 9 7 6 5 4 4 4 4
8 7 5 4 4 5 5 4 3 3 2 3 4 5 4 2 2 2 2 2 0 1 0 2 2 2 4 3 3 2 2 2 5 8 8 9 7 6 5 4 4 4 4
8 6 5 3 4 4 3 1 4 3 3 5 4 5 5 2 2 2 2 3 4 3 2 2 3 3 4 4 5 5 4 4 4 7 7 8 7 6 5 4 4 4 3
8 7 5 4 4 4 4 3 3 3 4 5 4 5 6 4 2 2 3 3 3 3 3 3 2 2 2 2 2 3 3 4 3 6 7 7 6 6 5 5 4 3 3
8 7 5 4 4 5 5 3 3 4 5 4 4 6 6 6 5 4 3 3 3 5 6 5 4 3 2 2 1 1 2 2 2 3 5 6 6 6 5 5 4 3 3
8 7 5 5 6 6 4 3 3 5 5 4 5 7 7 8 8 5 3 3 5 6 4 3 4 3 3 3 2 2 1 1 2 1 2 4 5 6 6 5 4 4 3
8 8 6 5 6 6 4 3 4 4 4 5 6 7 8 8 8 5 3 3 6 4 3 4 4 3 3 3 1 1 1 1 2 2 2 3 4 5 6 6 5 4 3
8 8 7 6 5 5 3 3 3 3 3 4 4 5 7 8 9 6 3 5 5 4 4 4 4 3 2 3 3 2 1 1 2 2 2 3 3 4 4 5 5 3 2
7 8 7 6 5 4 3 3 3 2 2 3 3 5 6 7 8 6 3 4 4 4 4 5 4 4 3 3 3 2 2 2 2 2 2 2 3 4 3 3 3 3 3
7 7 7 6 5 5 3 3 3 3 2 3 2 4 6 7 7 6 4 3 3 3 5 4 4 3 3 3 2 2 2 3 4 2 2 2 2 2 2 3 3 4 3
8 7 7 7 7 6 4 3 3 2 1 2 3 3 4 6 6 6 6 4 3 3 3 3 4 4 3 3 4 2 2 1 2 3 3 2 2 2 2 3 4 5 5
8 8 8 7 7 6 6 4 3 3 2 2 2 1 2 5 5 5 5 4 3 3 4 4 5 4 4 3 3 3 2 1 1 2 3 3 3 3 3 3 5 6 7
7 6 7 7 6 6 6 4 2 3 3 2 3 2 3 3 3 4 4 3 3 2 3 3 4 4 3 3 3 3 3 3 2 2 2 3 3 2 2 2 3 4 6
8 6 6 7 6 5 5 5 5 4 3 3 3 2 2 2 2 3 3 3 3 3 3 3 3 3 3 3 3 3 3 3 3 2 1 2 2 2 2 2 3 3 5
Wind_Direction
107 106 106 102 99 98 99 100 101 99 98 95 91 88 82 76 74 71 69 66 65 64 66 65 62 59 56 56 56 53 54 52 52 57 61 68 73 69 60 50 50 57 58
112 109 106 103 101 100 99 99 102 102 99 96 93 90 85 79 75 72 69 64 62 63 63 63 62 59 56 55 54 50 48 40 34 31 43 75 87 83 69 55 53 61 61
111 111 106 102 101 100 99 99 100 100 99 96 94 92 88 82 76 72 67 63 61 61 59 60 60 56 54 52 49 43 35 20 360 340 313 199 117 94 78 62 59 59 59
108 109 106 104 102 99 98 97 97 96 96 95 93 90 87 83 76 69 64 64 61 59 60 60 57 53 51 48 44 34 18 359 340 330 342 83 97 89 74 63 56 52 52
107 106 108 107 104 102 99 98 98 98 97 95 93 89 85 80 74 68 62 61 59 58 58 58 56 50 47 44 38 26 5 346 331 329 28 74 87 84 69 59 49 45 45
108 108 112 109 108 106 102 100 98 97 96 95 93 89 84 77 71 66 62 60 57 55 55 53 52 46 42 37 27 12 349 335 322 348 62 83 87 80 66 61 53 40 41
112 115 116 114 112 110 106 103 99 96 95 93 91 88 82 75 70 68 63 60 56 54 53 50 46 44 39 29 15 358 338 326 304 355 81 85 89 81 68 58 51 44 45
115 117 120 118 116 113 109 105 102 100 98 96 93 91 88 86 81 78 73 65 57 50 48 44 38 38 36 19 360 339 323 318 326 22 91 90 90 81 72 61 60 44 54
121 125 128 128 124 117 114 111 109 108 108 108 109 109 115 123 118 103 91 79 67 57 49 39 25 25 19 339 309 301 302 310 317 330 71 90 89 81 74 61 64 69 75
120 124 127 130 132 132 127 125 126 126 127 133 143 157 181 193 173 144 114 101 84 71 55 15 313 278 270 266 264 269 282 294 288 344 73 91 87 78 72 67 75 90 89
117 123 124 125 128 134 139 136 147 150 157 166 181 200 218 204 164 150 117 131 150 176 220 245 256 260 259 255 250 255 265 254 214 82 81 94 90 79 75 75 80 97 94
122 121 119 121 131 132 126 140 153 145 162 172 162 158 193 103 91 111 143 172 192 208 230 243 253 260 255 238 234 239 244 235 172 103 94 98 89 80 79 79 80 94 100
121 112 115 129 130 127 118 119 116 113 128 95 70 83 59 61 99 127 171 185 210 210 229 241 241 246 249 216 188 200 225 87 88 92 102 98 87 81 84 84 81 82 85
115 112 113 119 115 113 117 130 125 101 84 67 44 63 57 36 27 28 57 44 46 94 109 286 292 342 355 14 23 23 48 70 95 106 111 107 98 89 88 87 89 88 82
123 125 122 109 105 102 101 98 92 73 69 76 37 52 60 46 30 13 54 27 23 21 25 6 15 24 11 20 20 24 23 38 76 105 118 120 113 105 95 87 89 92 86
135 128 118 115 116 120 114 96 87 90 82 73 39 45 56 52 37 21 47 38 12 10 16 22 26 25 24 25 20 28 15 18 49 102 127 132 128 120 110 103 100 93 86
135 128 124 124 100 83 82 76 82 80 76 67 41 35 43 43 37 38 36 30 9 14 26 24 20 16 21 39 39 50 39 20 41 88 128 145 144 137 130 119 111 110 96
128 123 127 121 102 87 76 61 59 59 62 66 48 29 30 42 46 42 28 12 20 25 24 31 25 12 17 19 19 16 57 32 37 58 96 134 147 145 148 141 131 125 113
131 130 125 109 103 96 93 78 66 64 49 56 49 28 23 31 44 50 25 11 33 28 15 25 37 23 8 356 351 36 36 41 22 36 52 72 94 122 142 152 147 132 117
129 129 124 117 111 112 103 90 71 64 61 62 62 43 27 26 39 37 32 27 35 30 19 26 26 24 2 347 4 39 12 74 65 18 23 58 67 86 109 135 147 143 135
131 129 130 134 129 119 110 105 99 91 72 61 67 51 40 37 33 33 29 36 41 40 31 31 20 9 0 7 17 4 14 45 63 57 36 47 51 54 66 96 121 129 125
136 134 134 133 129 114 103 104 104 95 94 78 53 49 42 44 31 28 31 39 51 48 35 29 29 11 1 22 27 13 17 18 6 39 51 68 62 37 44 74 75 79 85
147 148 144 143 133 126 119 97 96 85 80 83 71 48 39 47 41 30 29 35 39 51 39 33 38 32 3 4 29 45 60 25 342 357 16 52 58 41 33 46 61 62 60
153 152 147 145 136 137 135 128 133 124 103 96 98 91 64 58 50 34 31 31 36 51 44 27 38 24 26 12 6 19 46 89 78 356 352 15 46 54 43 44 49 51 52
147 144 143 139 135 134 128 132 126 103 103 97 100 95 86 71 64 51 31 32 34 52 63 52 45 37 28 28 15 9 11 13 25 67 353 351 13 36 50 58 61 55 51
141 140 136 134 127 130 140 143 119 108 106 101 98 98 102 96 71 62 47 43 35 33 41 44 53 57 38 26 22 28 33 30 18 35 25 0 3 359 35 58 61 58 57
Height
1516 1517 1519 1520 1521 1522 1523 1524 1526 1527 1528 1529 1530 1531 1532 1533 1534 1535 1535 1536 1536 1537 1537 1538 1538 1539 1539 1540 1540 1541 1541 1542 1542 1543 1544 1544 1545 1545 1545 1545 1545 1545 1546
1517 1518 1519 1521 1522 1523 1524 1525 1526 1528 1529 1530 1531 1532 1533 1534 1534 1535 1536 1536 1537 1537 1538 1539 1539 1539 1540 1540 1541 1541 1542 1542 1543 1544 1544 1545 1545 1546 1546 1546 1546 1546 1546
1518 1519 1520 1522 1523 1524 1526 1527 1528 1529 1529 1530 1531 1532 1533 1534 1535 1536 1536 1537 1537 1538 1538 1539 1539 1540 1540 1541 1541 1542 1542 1543 1544 1545 1545 1546 1546 1546 1546 1546 1546 1546 1546
1519 1521 1522 1523 1524 1526 1527 1528 1529 1530 1530 1531 1532 1533 1534 1535 1535 1536 1536 1537 1537 1538 1538 1539 1539 1540 1540 1541 1541 1542 1543 1544 1544 1545 1546 1546 1546 1546 1546 1546 1546 1546 1546
1521 1522 1524 1525 1526 1527 1528 1529 1530 1531 1532 1533 1533 1534 1535 1535 1536 1537 1537 1537 1538 1538 1538 1539 1539 1540 1540 1541 1541 1542 1543 1544 1545 1546 1546 1547 1547 1547 1547 1546 1546 1546 1546
1522 1524 1525 1527 1528 1529 1530 1531 1532 1533 1533 1534 1534 1535 1536 1536 1537 1537 1538 1538 1538 1538 1539 1539 1539 1540 1540 1541 1541 1542 1543 1544 1545 1546 1547 1547 1547 1547 1547 1546 1546 1546 1546
1524 1525 1527 1528 1529 1531 1532 1533 1533 1534 1535 1535 1536 1536 1537 1537 1538 1538 1538 1539 1539 1539 1539 1539 1540 1540 1540 1541 1541 1542 1543 1544 1545 1546 1547 1547 1547 1547 1546 1546 1546 1546 1546
1526 1527 1529 1530 1531 1532 1533 1534 1535 1536 1536 1537 1537 1538 1538 1538 1539 1539 1539 1539 1539 1539 1539 1540 1540 1540 1541 1541 1541 1542 1543 1544 1545 1546 1547 1546 1546 1546 1546 1546 1546 1546 1546
1528 1529 1530 1532 1533 1534 1535 1536 1537 1537 1538 1538 1539 1539 1539 1540 1540 1540 1540 1540 1540 1540 1540 1540 1540 1540 1541 1541 1542 1542 1543 1544 1545 1546 1546 1546 1546 1546 1546 1546 1546 1546 1546
1530 1532 1533 1534 1535 1536 1537 1538 1539 1539 1540 1540 1540 1541 1541 1541 1541 1541 1541 1541 1540 1540 1540 1540 1541 1541 1541 1542 1542 1543 1543 1544 1545 1546 1546 1545 1546 1546 1546 1545 1545 1546 1546
1532 1534 1536 1537 1537 1539 1539 1540 1541 1541 1542 1542 1542 1542 1542 1542 1542 1542 1542 1542 1541 1541 1541 1541 1541 1541 1542 1542 1543 1543 1544 1544 1545 1545 1545 1545 1545 1545 1545 1545 1545 1546 1546
1534 1536 1537 1539 1539 1541 1542 1542 1543 1543 1543 1543 1544 1544 1544 1544 1545 1544 1544 1543 1543 1542 1542 1542 1542 1542 1542 1543 1543 1544 1544 1545 1545 1545 1545 1545 1545 1545 1545 1545 1545 1546 1547
1535 1537 1539 1540 1541 1542 1543 1544 1545 1545 1545 1545 1546 1546 1546 1546 1546 1545 1544 1544 1544 1543 1543 1543 1543 1543 1543 1544 1544 1544 1545 1545 1545 1545 1545 1545 1545 1545 1545 1545 1545 1546 1547
1536 1538 1540 1541 1542 1544 1544 1545 1546 1547 1546 1547 1547 1547 1547 1546 1547 1546 1546 1545 1545 1545 1544 1544 1544 1544 1544 1544 1545 1545 1545 1545 1545 1545 1545 1545 1545 1545 1544 1545 1545 1546 1546
1537 1539 1541 1542 1543 1544 1545 1547 1547 1548 1548 1548 1548 1548 1547 1547 1547 1547 1547 1546 1546 1546 1545 1545 1545 1544 1544 1544 1544 1545 1545 1545 1546 1545 1545 1545 1545 1545 1545 1545 1545 1546 1546
1538 1540 1541 1543 1544 1545 1546 1548 1548 1548 1549 1549 1549 1549 1548 1548 1548 1547 1547 1547 1546 1546 1546 1546 1546 1545 1545 1545 1545 1545 1545 1546 1546 1545 1545 1545 1545 1545 1545 1546 1546 1546 1546
1539 1540 1542 1544 1545 1546 1547 1548 1549 1549 1550 1550 1550 1550 1549 1549 1548 1548 1548 1547 1547 1547 1546 1546 1546 1546 1545 1545 1545 1546 1546 1546 1546 1546 1546 1546 1546 1546 1546 1546 1546 1546 1546
1539 1541 1543 1544 1546 1547 1548 1549 1549 1550 1550 1551 1550 1550 1550 1550 1549 1548 1548 1548 1548 1547 1547 1546 1546 1546 1546 1546 1546 1546 1546 1546 1546 1546 1547 1546 1546 1546 1546 1546 1546 1546 1546
1539 1541 1543 1545 1546 1547 1548 1549 1550 1551 1551 1551 1551 1551 1551 1550 1550 1549 1549 1548 1548 1547 1547 1547 1546 1546 1546 1546 1546 1546 1547 1547 1547 1547 1547 1547 1547 1547 1547 1546 1546 1546 1546
1540 1542 1543 1545 1547 1548 1549 1550 1551 1551 1552 1552 1552 1551 1551 1551 1550 1550 1550 1549 1548 1548 1548 1547 1547 1547 1547 1546 1547 1547 1547 1547 1548 1547 1548 1548 1548 1548 1547 1547 1547 1546 1546
1540 1542 1544 1545 1547 1548 1549 1550 1551 1552 1553 1553 1553 1552 1552 1552 1551 1551 1550 1550 1549 1548 1548 1548 1548 1548 1547 1547 1547 1547 1547 1548 1548 1548 1548 1548 1548 1548 1548 1548 1547 1547 1547
1539 1541 1543 1545 1547 1548 1550 1551 1552 1553 1553 1553 1553 1553 1553 1552 1552 1552 1551 1551 1550 1550 1549 1549 1549 1548 1548 1548 1548 1548 1548 1550 1549 1549 1549 1549 1549 1549 1548 1548 1548 1547 1547
1539 1541 1543 1545 1547 1548 1550 1551 1552 1553 1554 1554 1554 1554 1554 1553 1553 1552 1552 1552 1551 1551 1550 1550 1550 1549 1549 1549 1549 1549 1549 1550 1550 1551 1550 1550 1550 1549 1549 1549 1548 1548 1547
1538 1540 1543 1545 1547 1548 1550 1551 1552 1553 1554 1555 1555 1555 1555 1554 1554 1553 1553 1552 1552 1552 1551 1551 1551 1550 1550 1550 1550 1550 1551 1551 1551 1551 1552 1551 1551 1550 1550 1549 1549 1548 1547
1537 1540 1542 1544 1546 1548 1549 1551 1553 1554 1555 1555 1555 1555 1555 1555 1554 1554 1554 1553 1553 1553 1553 1552 1552 1551 1551 1551 1551 1551 1551 1552 1552 1552 1551 1552 1551 1551 1551 1550 1549 1548 1547
1536 1539 1541 1543 1545 1548 1550 1551 1553 1554 1555 1555 1556 1556 1556 1556 1555 1555 1555 1554 1554 1554 1554 1553 1553 1553 1552 1552 1552 1552 1552 1552 1552 1552 1552 1552 1551 1552 1551 1551 1550 1549 1548